CW8633 Weather Reports


Display with metric or nautical units.
time (UTC)temp
F
wind
direction
speed
MPH
gust
MPH
rain 1hr
in
rain 24hr
in
rain mn
in
humidity
%
barometer
mb
20260902235615 78 242 5.0 9.0 0.00 0.03 0.00 21 1011.1
20260902234624 79 226 7.0 12.0 0.00 0.03 0.00 20 1011.2
20260902233616 80 265 9.0 12.0 0.00 0.03 0.00 18 1011.2
20260902232628 79 248 6.0 12.0 0.00 0.03 0.00 19 1011.2
20260902231617 80 233 6.0 12.0 0.00 0.03 0.00 19 1011.2
20260902230627 80 261 10.0 15.0 0.00 0.03 0.00 18 1011.2
20260902225632 80 244 8.0 15.0 0.00 0.03 0.00 21 1011.1
20260902224620 79 223 8.0 14.0 0.00 0.03 0.00 21 1011.1
20260902223630 80 233 8.0 15.0 0.00 0.03 0.00 22 1011.1
20260902222619 80 252 9.0 16.0 0.00 0.03 0.00 22 1011.1
20260902221613 81 249 9.0 17.0 0.00 0.03 0.00 21 1011.2
20260902220621 81 229 10.0 13.0 0.00 0.03 0.00 21 1011.4
20260902215620 80 220 5.0 17.0 0.00 0.03 0.00 24 1011.3
20260902214630 80 225 8.0 22.0 0.00 0.03 0.00 25 1011.4
20260902213640 80 257 9.0 16.0 0.00 0.03 0.00 24 1011.2
20260902212613 80 244 11.0 22.0 0.00 0.03 0.00 23 1011.3
20260902211622 80 267 11.0 20.0 0.00 0.03 0.00 23 1011.3
20260902210632 81 212 8.0 21.0 0.00 0.03 0.00 24 1011.4
20260902205615 81 242 13.0 18.0 0.00 0.03 0.00 23 1011.4
20260902200624 80 223 11.0 19.0 0.00 0.03 0.00 26 1011.7
20260902195623 80 225 10.0 23.0 0.00 0.03 0.00 26 1011.8
20260902194633 80 244 11.0 18.0 0.00 0.03 0.00 26 1011.9
20260902193620 79 194 8.0 17.0 0.00 0.03 0.00 27 1012.0
20260902192636 78 219 12.0 21.0 0.00 0.03 0.00 28 1012.1
20260902191625 79 218 9.0 19.0 0.00 0.03 0.00 27 1012.1
20260902190634 78 234 12.0 22.0 0.00 0.03 0.00 26 1012.3
20260902185633 79 215 11.0 18.0 0.00 0.03 0.00 26 1012.3
20260902184619 79 235 12.0 21.0 0.00 0.03 0.00 25 1012.4
20260902183623 79 236 13.0 19.0 0.00 0.03 0.00 27 1012.5
20260902182613 78 241 11.0 24.0 0.00 0.03 0.00 29 1012.5
20260902181621 78 261 11.0 18.0 0.00 0.03 0.00 28 1012.7
20260902180615 78 215 11.0 18.0 0.00 0.03 0.00 28 1012.5
20260902175614 77 211 9.0 23.0 0.00 0.03 0.00 29 1012.6
20260902174629 76 227 11.0 18.0 0.00 0.03 0.00 30 1012.7
20260902173619 76 226 7.0 15.0 0.00 0.03 0.00 33 1012.8
20260902172649 76 252 9.0 17.0 0.00 0.03 0.00 34 1012.9
20260902171639 75 251 10.0 16.0 0.00 0.03 0.00 36 1012.9
20260902170615 75 226 8.0 16.0 0.00 0.03 0.00 35 1012.7
20260902165617 76 223 11.0 19.0 0.00 0.03 0.00 33 1012.7
20260902164649 77 250 9.0 22.0 0.00 0.03 0.00 33 1012.7
20260902163619 76 209 11.0 21.0 0.00 0.03 0.00 32 1012.7
20260902162613 76 211 14.0 23.0 0.00 0.03 0.00 35 1012.5
20260902161642 75 196 10.0 16.0 0.00 0.03 0.00 38 1012.6
20260902160612 74 221 10.0 21.0 0.00 0.03 0.00 40 1012.6
20260902155613 73 221 10.0 18.0 0.00 0.03 0.00 45 1012.6
20260902154646 72 201 12.0 18.0 0.00 0.03 0.00 46 1012.3
20260902153619 67 217 7.0 12.0 0.00 0.03 0.00 60 1012.2
20260902152628 64 251 2.0 3.0 0.00 0.03 0.00 74 1012.3
20260902151614 62 243 1.0 3.0 0.00 0.03 0.00 74 1012.3
20260902150623 60 243 0.0 2.0 0.00 0.03 0.00 79 1012.4
20260902145626 59 243 2.0 4.0 0.00 0.03 0.00 80 1012.2
20260902144636 59 298 0.0 2.0 0.00 0.03 0.00 80 1012.1
20260902143626 58 300 1.0 4.0 0.00 0.03 0.00 80 1012.0
20260902142616 58 92 1.0 4.0 0.00 0.03 0.00 81 1011.8
20260902141626 57 88 0.0 0.0 0.00 0.03 0.00 81 1011.7
20260902140625 56 88 0.0 2.0 0.00 0.03 0.00 82 1011.7
20260902135627 55 88 1.0 4.0 0.00 0.03 0.00 83 1011.7
20260902134616 55 71 2.0 4.0 0.00 0.03 0.00 83 1011.6
20260902133629 54 72 1.0 3.0 0.00 0.03 0.00 84 1011.6
20260902132631 54 74 0.0 2.0 0.00 0.03 0.00 84 1011.6
20260902131627 54 73 3.0 4.0 0.00 0.03 0.00 83 1011.4
20260902130617 55 272 1.0 6.0 0.00 0.03 0.00 84 1011.6
20260902125621 54 87 2.0 8.0 0.00 0.03 0.00 84 1011.4
20260902124631 54 360 1.0 5.0 0.00 0.03 0.00 86 1011.4
20260902123632 54 86 0.0 4.0 0.00 0.03 0.00 86 1011.4
20260902122634 54 56 2.0 4.0 0.00 0.03 0.00 85 1011.3
20260902121619 54 53 0.0 5.0 0.00 0.03 0.00 85 1011.4
20260902120640 55 355 2.0 7.0 0.00 0.03 0.00 87 1011.3
20260902115619 54 86 2.0 8.0 0.00 0.03 0.00 86 1011.1
20260902114629 54 327 2.0 4.0 0.00 0.03 0.00 86 1011.3
20260902113619 54 71 3.0 5.0 0.00 0.03 0.00 85 1011.3
20260902112633 55 71 1.0 4.0 0.00 0.03 0.00 84 1011.4
20260902111622 55 74 0.0 4.0 0.00 0.03 0.00 84 1011.7
20260902110613 56 74 1.0 4.0 0.00 0.03 0.00 84 1011.7
20260902105613 56 69 0.0 2.0 0.00 0.03 0.00 84 1011.7
20260902104628 57 69 0.0 3.0 0.00 0.03 0.00 84 1011.7
20260902103619 57 69 0.0 3.0 0.00 0.03 0.00 84 1011.7
20260902102630 57 69 2.0 4.0 0.00 0.03 0.00 84 1011.7
20260902101618 57 68 3.0 3.0 0.00 0.03 0.00 83 1011.8
20260902100613 57 67 1.0 2.0 0.00 0.03 0.00 83 1011.9
20260902095634 57 67 0.0 3.0 0.00 0.03 0.00 84 1011.9
20260902094624 57 68 0.0 2.0 0.00 0.03 0.00 84 1011.9
20260902093616 57 68 0.0 0.0 0.00 0.03 0.00 84 1012.0
20260902092613 57 68 0.0 3.0 0.00 0.03 0.00 84 1012.1
20260902091644 57 68 0.0 3.0 0.00 0.03 0.00 84 1012.1
20260902090634 57 68 0.0 2.0 0.00 0.03 0.00 83 1012.0
20260902085636 57 68 0.0 2.0 0.00 0.03 0.00 83 1011.9
20260902084645 57 68 0.0 2.0 0.00 0.03 0.00 83 1011.9
20260902083619 57 68 1.0 3.0 0.00 0.03 0.00 82 1011.9
20260902082629 58 68 0.0 0.0 0.00 0.03 0.00 82 1012.1
20260902081619 58 67 0.0 2.0 0.00 0.03 0.00 81 1012.1
20260902080630 59 67 0.0 2.0 0.00 0.03 0.00 80 1012.0
20260902075616 59 68 2.0 3.0 0.00 0.03 0.00 79 1011.9
20260902074628 59 68 0.0 3.0 0.00 0.03 0.00 78 1011.9
20260902073619 60 67 1.0 3.0 0.00 0.03 0.00 78 1011.7
20260902072651 60 74 3.0 4.0 0.00 0.03 0.00 76 1011.7
20260902071646 61 344 1.0 3.0 0.00 0.03 0.00 75 1011.9
20260902070616 61 343 3.0 4.0 0.00 0.03 0.00 76 1011.8
20260902065618 61 66 1.0 4.0 0.00 0.03 0.00 74 1011.7
20260902064630 62 11 2.0 5.0 0.00 0.03 0.00 72 1011.6
20260902063626 63 236 1.0 4.0 0.00 0.03 0.00 72 1011.6
20260902062617 63 10 0.0 4.0 0.00 0.03 0.00 71 1011.6
20260902061628 65 33 1.0 4.0 0.00 0.03 0.00 69 1011.4
20260902060628 66 9 2.0 4.0 0.00 0.03 0.00 65 1011.4
20260902055615 67 100 1.0 3.0 0.00 0.03 0.03 61 1011.4
20260902054627 67 100 1.0 9.0 0.00 0.03 0.03 60 1011.6
20260902053618 66 73 5.0 12.0 0.00 0.03 0.03 62 1011.8
20260902052629 64 98 9.0 12.0 0.00 0.03 0.03 66 1012.1
20260902051624 64 57 3.0 12.0 0.01 0.03 0.03 72 1012.2
20260902050617 63 290 9.0 17.0 0.03 0.03 0.03 77 1012.4
20260902045618 64 111 1.0 5.0 0.03 0.03 0.03 76 1011.6
20260902044628 64 325 4.0 8.0 0.03 0.03 0.03 74 1011.7
20260902043621 62 91 4.0 8.0 0.03 0.03 0.03 75 1011.7
20260902042612 62 88 6.0 8.0 0.03 0.03 0.03 78 1011.7
20260902041624 62 310 4.0 7.0 0.02 0.02 0.02 77 1012.1
20260902040619 62 128 0.0 3.0 0.00 0.00 0.00 74 1011.9
20260902035619 63 128 3.0 5.0 0.00 0.00 0.00 70 1012.0
20260902034630 64 270 0.0 2.0 0.00 0.00 0.00 67 1012.1
20260902033621 65 329 1.0 5.0 0.00 0.00 0.00 65 1011.9
20260902032614 67 294 2.0 7.0 0.00 0.00 0.00 60 1011.8
20260902031643 68 82 0.0 2.0 0.00 0.00 0.00 56 1011.7
20260902030633 68 82 0.0 0.0 0.00 0.00 0.00 56 1011.6
20260902025613 69 82 0.0 0.0 0.00 0.00 0.00 55 1011.4
20260902024624 69 82 0.0 3.0 0.00 0.00 0.00 56 1011.4
20260902023636 69 82 1.0 3.0 0.00 0.00 0.00 56 1011.4
20260902022625 70 82 0.0 0.0 0.00 0.00 0.00 59 1011.4
20260902021614 71 82 0.0 0.0 0.00 0.00 0.00 56 1011.5
20260902020625 72 82 2.0 5.0 0.00 0.00 0.00 56 1011.6
20260902015628 72 79 4.0 7.0 0.00 0.00 0.00 54 1011.7
20260902014619 73 65 2.0 6.0 0.00 0.00 0.00 53 1011.7
20260902013628 74 153 2.0 3.0 0.00 0.00 0.00 55 1011.9
20260902012618 76 153 1.0 3.0 0.00 0.00 0.00 52 1011.9
20260902011612 77 252 1.0 2.0 0.00 0.00 0.00 44 1012.1
20260902010621 78 252 0.0 4.0 0.00 0.00 0.00 44 1012.3
20260902005620 77 325 1.0 5.0 0.00 0.00 0.00 40 1012.4
20260902004631 77 167 2.0 5.0 0.00 0.00 0.00 39 1012.3
20260902003626 76 167 3.0 6.0 0.00 0.00 0.00 44 1012.4
20260902002637 75 121 3.0 7.0 0.00 0.00 0.00 44 1012.3
20260902001646 75 145 3.0 7.0 0.00 0.00 0.00 44 1012.5
20260902000614 76 286 6.0 13.0 0.00 0.00 0.00 44 1012.7